User: anonymous   Login
Location: Unspecified
(0.0000°N, 0.0000°E)
Time: 08:35:21
(UTC+00:00)
Language:

Uribyol 2 - Orbit

View from above orbital plane
View from above orbital plane
View from above satellite
View from above satellite

Ground track
Ground track

The orbit data is extracted from the following two-line orbital elements,

1 22828U 93061F   17293.48152062 -.00000015 +00000-0 +11684-4 0  9992
2 22828 098.8139 259.4606 0008856 286.4563 073.5645 14.30652611223629
Epoch (UTC): 20 October 2017 11:33:23
Eccentricity: 0.0008856
inclination: 98.8139°
perigee height: 783 km
apogee height: 796 km
right ascension of ascending node: 259.4606°
argument of perigee: 286.4563°
revolutions per day: 14.30652611
mean anomaly at epoch: 73.5645°
orbit number at epoch: 22362

The dashed part of the orbit path shows where the satellite is in the earth's shadow,  

DLR